QPF
0.00 0.00 0.00 0.00 0.00 0.00 0.00 0.01 0.02 0.01 0.01 0.01 0.01 0.00 0.00 0.00 0.00 0.00 0.00 0.00 0.00 0.00 0.00 0.00 0.00 0.00 0.00 0.00 0.00 0.00 0.00 0.00 0.00 0.00 0.00 0.00 0.00 0.00 0.00 0.00 0.00 0.00 0.00 0.00 0.00
0.00 0.00 0.00 0.00 0.00 0.00 0.00 0.01 0.02 0.01 0.01 0.01 0.01 0.00 0.01 0.01 0.00 0.00 0.00 0.00 0.00 0.00 0.00 0.00 0.00 0.00 0.00 0.00 0.00 0.00 0.00 0.00 0.00 0.00 0.00 0.00 0.00 0.00 0.00 0.00 0.00 0.00 0.00 0.00 0.00
0.00 0.00 0.00 0.00 0.00 0.00 0.00 0.00 0.01 0.02 0.02 0.02 0.01 0.00 0.02 0.02 0.03 0.00 0.00 0.00 0.00 0.00 0.00 0.00 0.00 0.01 0.00 0.00 0.00 0.00 0.00 0.00 0.00 0.00 0.00 0.00 0.00 0.00 0.00 0.00 0.00 0.00 0.00 0.00 0.00
0.00 0.00 0.00 0.00 0.00 0.00 0.00 0.00 0.00 0.01 0.03 0.04 0.03 0.02 0.02 0.05 0.01 0.00 0.00 0.00 0.00 0.00 0.00 0.00 0.00 0.01 0.00 0.00 0.00 0.00 0.00 0.00 0.00 0.00 0.00 0.00 0.00 0.00 0.00 0.00 0.00 0.00 0.00 0.00 0.00
0.00 0.00 0.00 0.00 0.00 0.00 0.00 0.00 0.00 0.01 0.02 0.05 0.06 0.05 0.03 0.04 0.01 0.00 0.00 0.00 0.00 0.00 0.00 0.00 0.00 0.00 0.00 0.00 0.00 0.00 0.00 0.00 0.00 0.00 0.00 0.00 0.00 0.00 0.00 0.00 0.00 0.00 0.00 0.00 0.00
0.00 0.00 0.00 0.00 0.00 0.01 0.01 0.00 0.00 0.00 0.00 0.04 0.09 0.07 0.02 0.01 0.00 0.00 0.00 0.00 0.00 0.00 0.00 0.00 0.00 0.00 0.00 0.00 0.00 0.00 0.00 0.00 0.00 0.00 0.00 0.00 0.00 0.00 0.00 0.00 0.00 0.00 0.00 0.00 0.00
0.00 0.00 0.00 0.01 0.01 0.01 0.02 0.02 0.00 0.00 0.00 0.05 0.11 0.05 0.02 0.00 0.00 0.00 0.00 0.00 0.00 0.00 0.00 0.00 0.00 0.00 0.00 0.00 0.00 0.00 0.00 0.00 0.00 0.00 0.00 0.00 0.00 0.00 0.00 0.00 0.00 0.00 0.00 0.00 0.00
0.01 0.00 0.00 0.01 0.01 0.03 0.02 0.03 0.01 0.00 0.00 0.04 0.14 0.09 0.02 0.00 0.00 0.00 0.00 0.00 0.00 0.00 0.00 0.00 0.00 0.00 0.00 0.00 0.00 0.00 0.00 0.00 0.00 0.00 0.00 0.00 0.00 0.00 0.00 0.00 0.00 0.00 0.00 0.00 0.00
0.00 0.00 0.00 0.02 0.02 0.04 0.03 0.02 0.05 0.01 0.02 0.04 0.09 0.12 0.03 0.01 0.00 0.00 0.00 0.00 0.00 0.00 0.00 0.00 0.00 0.00 0.00 0.00 0.00 0.00 0.00 0.00 0.00 0.00 0.00 0.00 0.00 0.00 0.00 0.00 0.00 0.00 0.00 0.00 0.00
0.01 0.00 0.00 0.02 0.02 0.02 0.05 0.08 0.10 0.11 0.12 0.08 0.07 0.08 0.03 0.01 0.00 0.00 0.00 0.00 0.00 0.00 0.00 0.00 0.00 0.00 0.00 0.00 0.00 0.00 0.00 0.00 0.00 0.00 0.00 0.00 0.00 0.00 0.00 0.00 0.00 0.00 0.00 0.00 0.00
0.01 0.01 0.00 0.01 0.02 0.02 0.06 0.11 0.08 0.07 0.06 0.02 0.02 0.02 0.01 0.01 0.01 0.00 0.00 0.01 0.01 0.00 0.00 0.00 0.00 0.00 0.00 0.00 0.00 0.00 0.00 0.00 0.00 0.00 0.00 0.00 0.00 0.00 0.00 0.00 0.00 0.00 0.00 0.00 0.00
0.01 0.02 0.01 0.00 0.01 0.04 0.07 0.02 0.01 0.02 0.02 0.01 0.02 0.03 0.03 0.02 0.01 0.01 0.00 0.00 0.00 0.00 0.01 0.01 0.00 0.00 0.00 0.00 0.00 0.00 0.00 0.00 0.00 0.00 0.00 0.00 0.00 0.00 0.00 0.00 0.00 0.00 0.00 0.00 0.00
0.02 0.02 0.01 0.01 0.03 0.06 0.03 0.00 0.01 0.07 0.07 0.01 0.01 0.02 0.02 0.02 0.00 0.00 0.00 0.00 0.00 0.01 0.01 0.00 0.00 0.00 0.00 0.00 0.00 0.00 0.00 0.00 0.00 0.00 0.00 0.00 0.00 0.00 0.00 0.00 0.00 0.00 0.00 0.00 0.00
0.03 0.02 0.01 0.02 0.02 0.01 0.01 0.01 0.02 0.15 0.08 0.02 0.02 0.02 0.03 0.02 0.01 0.00 0.00 0.00 0.00 0.00 0.00 0.01 0.00 0.00 0.01 0.00 0.00 0.00 0.00 0.00 0.00 0.00 0.00 0.00 0.00 0.00 0.00 0.00 0.00 0.00 0.00 0.00 0.00
0.03 0.02 0.01 0.01 0.01 0.00 0.00 0.01 0.07 0.15 0.05 0.01 0.01 0.01 0.02 0.02 0.00 0.00 0.00 0.00 0.00 0.00 0.00 0.00 0.00 0.01 0.01 0.00 0.00 0.00 0.00 0.00 0.00 0.00 0.00 0.00 0.00 0.00 0.00 0.00 0.00 0.00 0.00 0.00 0.00
0.03 0.02 0.02 0.02 0.01 0.01 0.01 0.05 0.10 0.08 0.03 0.01 0.00 0.02 0.02 0.01 0.00 0.00 0.00 0.00 0.00 0.00 0.00 0.00 0.01 0.01 0.00 0.00 0.01 0.00 0.00 0.00 0.00 0.00 0.00 0.00 0.00 0.00 0.00 0.00 0.00 0.00 0.00 0.00 0.00
0.03 0.02 0.01 0.00 0.00 0.03 0.07 0.07 0.04 0.01 0.00 0.01 0.00 0.01 0.01 0.00 0.01 0.00 0.00 0.00 0.00 0.00 0.01 0.00 0.01 0.00 0.01 0.02 0.01 0.00 0.00 0.00 0.00 0.00 0.00 0.00 0.00 0.00 0.00 0.00 0.00 0.00 0.00 0.00 0.00
0.02 0.02 0.02 0.01 0.02 0.03 0.06 0.05 0.02 0.01 0.00 0.00 0.00 0.00 0.00 0.00 0.00 0.00 0.00 0.00 0.00 0.00 0.00 0.00 0.00 0.01 0.01 0.00 0.00 0.00 0.00 0.00 0.00 0.00 0.00 0.00 0.00 0.00 0.00 0.00 0.00 0.00 0.00 0.00 0.00
0.03 0.04 0.02 0.02 0.02 0.03 0.02 0.02 0.01 0.00 0.00 0.00 0.00 0.00 0.00 0.00 0.00 0.00 0.00 0.00 0.00 0.00 0.00 0.00 0.00 0.00 0.00 0.00 0.00 0.00 0.00 0.00 0.00 0.00 0.00 0.00 0.00 0.00 0.00 0.00 0.00 0.00 0.00 0.00 0.00
0.02 0.01 0.00 0.00 0.01 0.04 0.02 0.00 0.00 0.00 0.00 0.00 0.01 0.00 0.00 0.00 0.00 0.00 0.00 0.00 0.00 0.00 0.00 0.00 0.00 0.00 0.00 0.00 0.00 0.00 0.00 0.00 0.00 0.00 0.00 0.00 0.00 0.00 0.00 0.00 0.00 0.00 0.00 0.00 0.00
0.00 0.00 0.00 0.01 0.03 0.04 0.01 0.00 0.00 0.00 0.00 0.00 0.01 0.00 0.00 0.00 0.00 0.00 0.00 0.00 0.00 0.00 0.00 0.00 0.00 0.00 0.00 0.00 0.00 0.00 0.00 0.00 0.00 0.00 0.00 0.00 0.00 0.00 0.00 0.00 0.00 0.00 0.00 0.00 0.00
0.00 0.00 0.01 0.02 0.02 0.01 0.00 0.00 0.00 0.00 0.00 0.00 0.00 0.00 0.00 0.00 0.00 0.00 0.00 0.00 0.00 0.00 0.00 0.00 0.00 0.00 0.00 0.00 0.00 0.00 0.00 0.00 0.00 0.00 0.00 0.00 0.00 0.00 0.00 0.00 0.00 0.00 0.00 0.00 0.00
0.00 0.00 0.02 0.04 0.01 0.01 0.00 0.00 0.00 0.00 0.00 0.00 0.00 0.00 0.00 0.00 0.00 0.00 0.00 0.00 0.00 0.00 0.00 0.00 0.00 0.00 0.00 0.00 0.00 0.00 0.00 0.00 0.00 0.00 0.00 0.00 0.00 0.00 0.00 0.00 0.00 0.00 0.00 0.00 0.00
0.00 0.01 0.02 0.03 0.01 0.00 0.00 0.00 0.00 0.00 0.00 0.00 0.00 0.00 0.00 0.00 0.00 0.00 0.00 0.00 0.00 0.00 0.00 0.00 0.00 0.00 0.00 0.00 0.00 0.00 0.00 0.00 0.00 0.00 0.00 0.00 0.00 0.00 0.00 0.00 0.00 0.00 0.00 0.00 0.00
0.00 0.00 0.00 0.01 0.00 0.00 0.00 0.00 0.00 0.00 0.00 0.00 0.00 0.00 0.00 0.00 0.00 0.00 0.00 0.00 0.00 0.00 0.00 0.00 0.00 0.00 0.00 0.00 0.00 0.00 0.00 0.00 0.00 0.00 0.00 0.00 0.00 0.00 0.00 0.00 0.00 0.00 0.00 0.00 0.00
0.00 0.00 0.00 0.00 0.00 0.00 0.01 0.00 0.00 0.00 0.00 0.00 0.00 0.00 0.00 0.00 0.00 0.00 0.00 0.00 0.00 0.00 0.00 0.00 0.00 0.00 0.00 0.00 0.00 0.00 0.00 0.00 0.00 0.00 0.00 0.00 0.00 0.00 0.00 0.00 0.00 0.00 0.00 0.00 0.00
0.00 0.00 0.00 0.00 0.00 0.01 0.00 0.00 0.00 0.00 0.00 0.00 0.00 0.00 0.00 0.00 0.00 0.00 0.00 0.00 0.00 0.00 0.00 0.00 0.00 0.00 0.00 0.00 0.00 0.00 0.00 0.00 0.00 0.00 0.00 0.00 0.00 0.00 0.00 0.00 0.00 0.00 0.00 0.00 0.00
MSLP
1011.03 1011.35 1011.71 1011.92 1012.00 1012.28 1012.61 1012.98 1013.31 1013.71 1014.19 1014.70 1015.11 1015.48 1016.01 1016.41 1016.86 1016.97 1016.63 1016.52 1016.41 1016.51 1016.23 1016.39 1016.76 1016.72 1016.95 1015.96 1015.18 1014.46 1013.24 1012.03 1011.70 1011.50 1011.46 1012.31 1012.54 1013.27 1013.63 1013.62 1013.96 1014.53 1014.66 1015.36 1017.35
1010.46 1010.74 1011.09 1011.44 1011.69 1011.83 1012.21 1012.58 1013.06 1013.45 1013.88 1014.44 1014.95 1015.30 1015.94 1016.42 1016.66 1016.19 1016.07 1016.32 1017.05 1016.96 1016.02 1016.17 1016.64 1016.85 1016.49 1015.72 1014.95 1014.26 1013.07 1012.17 1012.26 1012.10 1012.03 1012.55 1012.77 1013.22 1013.68 1013.72 1014.10 1014.79 1015.77 1016.21 1017.83
1010.09 1010.33 1010.65 1010.84 1011.15 1011.44 1011.82 1012.18 1012.80 1013.17 1013.70 1014.22 1014.79 1015.19 1015.87 1016.21 1016.41 1015.07 1015.30 1015.89 1016.81 1016.97 1016.16 1016.03 1016.60 1016.92 1016.30 1015.73 1014.76 1013.89 1012.88 1012.75 1013.24 1013.35 1013.06 1012.85 1013.06 1013.26 1013.44 1013.28 1013.36 1014.20 1015.47 1016.72 1017.84
1009.73 1010.07 1010.36 1010.60 1010.76 1011.10 1011.41 1011.90 1012.39 1012.97 1013.46 1013.97 1014.61 1015.10 1015.83 1016.16 1015.61 1014.14 1014.34 1015.36 1016.32 1016.79 1016.38 1015.97 1016.05 1016.92 1016.54 1015.25 1014.45 1013.88 1013.44 1013.48 1014.05 1014.08 1013.61 1013.39 1013.33 1013.31 1013.36 1013.07 1013.83 1013.56 1014.87 1016.43 1017.57
1009.26 1009.61 1010.09 1010.37 1010.44 1010.63 1011.06 1011.54 1012.09 1012.69 1013.19 1013.80 1014.48 1015.07 1015.81 1015.37 1013.97 1014.04 1014.35 1015.17 1015.99 1016.61 1016.05 1015.60 1015.61 1016.15 1015.99 1015.00 1014.17 1013.68 1013.73 1014.20 1014.36 1014.11 1014.30 1014.21 1013.75 1013.55 1013.04 1013.02 1013.85 1013.94 1015.06 1016.08 1017.24
1008.68 1009.17 1009.61 1009.90 1010.00 1010.25 1010.60 1011.23 1011.77 1012.50 1013.13 1013.66 1014.38 1014.90 1014.83 1013.95 1013.74 1013.86 1014.54 1015.16 1015.71 1016.22 1015.79 1015.45 1015.09 1015.51 1015.42 1014.87 1014.17 1013.93 1013.95 1014.17 1014.40 1014.13 1014.57 1014.56 1014.04 1014.09 1013.05 1012.81 1013.81 1014.21 1014.88 1015.78 1016.70
1007.97 1008.57 1009.12 1009.44 1009.55 1009.86 1010.31 1010.90 1011.58 1012.38 1012.88 1013.43 1014.10 1014.77 1014.14 1012.47 1013.33 1013.99 1014.46 1014.66 1015.48 1015.82 1015.74 1015.60 1015.39 1015.57 1015.07 1014.95 1014.78 1014.42 1014.04 1014.01 1014.26 1013.99 1014.39 1015.13 1014.21 1013.68 1013.06 1013.58 1013.59 1014.11 1014.47 1015.26 1016.29
1007.39 1008.04 1008.52 1008.95 1009.18 1009.45 1010.11 1010.93 1011.65 1012.48 1013.09 1013.58 1014.04 1014.94 1013.31 1013.01 1013.29 1013.91 1014.30 1014.78 1015.50 1016.02 1016.10 1016.10 1015.82 1016.08 1015.97 1015.52 1015.04 1014.82 1014.60 1013.64 1013.84 1014.12 1014.15 1014.90 1013.75 1013.01 1013.19 1013.34 1013.31 1013.42 1013.87 1014.59 1015.43
1006.82 1007.50 1008.03 1008.43 1008.75 1009.21 1010.00 1010.82 1011.70 1012.40 1013.15 1013.88 1014.57 1014.41 1013.63 1013.23 1013.17 1013.61 1014.04 1014.45 1015.52 1016.04 1016.41 1016.21 1016.43 1016.28 1016.50 1015.89 1015.37 1014.65 1013.82 1013.69 1013.57 1014.03 1014.08 1014.13 1013.20 1013.01 1013.42 1013.45 1013.18 1012.93 1013.19 1013.68 1014.53
1006.30 1007.00 1007.55 1007.86 1008.24 1008.91 1009.85 1010.87 1011.74 1012.53 1013.18 1013.88 1014.26 1014.73 1013.57 1011.97 1013.00 1013.13 1014.16 1014.62 1015.20 1015.97 1016.75 1016.91 1016.33 1015.79 1016.13 1015.39 1013.75 1013.92 1014.20 1013.90 1013.67 1013.96 1014.11 1013.74 1013.23 1013.02 1012.91 1013.00 1013.06 1012.86 1012.73 1013.04 1013.62
1005.75 1006.46 1007.03 1007.46 1008.01 1008.89 1010.16 1011.11 1012.03 1012.26 1012.08 1011.15 1011.41 1011.96 1011.98 1011.80 1012.79 1013.14 1013.80 1014.55 1015.07 1015.30 1015.93 1016.50 1015.94 1014.11 1014.49 1014.96 1014.79 1014.39 1014.34 1014.13 1013.77 1014.02 1014.14 1013.89 1013.39 1013.14 1012.62 1012.33 1012.33 1012.43 1012.47 1012.53 1012.79
1005.28 1006.11 1006.73 1007.36 1008.08 1008.86 1009.28 1009.34 1009.68 1009.94 1011.09 1011.53 1011.66 1011.64 1012.13 1012.53 1012.55 1012.85 1013.50 1014.00 1014.18 1014.41 1015.32 1015.94 1013.87 1014.16 1014.47 1014.65 1014.96 1014.81 1014.66 1014.34 1014.30 1014.73 1014.89 1014.15 1013.21 1012.65 1012.15 1011.68 1011.53 1011.59 1011.56 1011.77 1012.22
1004.91 1005.80 1006.59 1007.38 1008.21 1008.98 1008.95 1009.05 1009.31 1010.11 1010.40 1010.08 1010.62 1010.86 1011.59 1012.56 1011.79 1011.97 1012.61 1012.81 1013.32 1013.68 1013.62 1013.32 1013.37 1014.33 1013.96 1014.01 1014.52 1014.50 1014.64 1014.23 1014.63 1015.62 1015.85 1015.22 1013.36 1012.26 1011.58 1011.30 1010.90 1010.69 1010.88 1011.15 1011.54
1004.70 1005.59 1006.50 1007.40 1008.66 1008.35 1008.97 1009.53 1009.96 1010.99 1010.73 1009.34 1009.84 1009.37 1011.60 1011.45 1011.57 1011.44 1011.49 1012.40 1012.65 1012.21 1013.06 1013.60 1013.12 1012.98 1013.26 1013.57 1014.22 1014.38 1014.95 1015.08 1015.65 1016.15 1016.35 1015.82 1013.32 1011.48 1010.59 1009.84 1009.52 1009.58 1009.81 1010.04 1010.87
1004.48 1005.44 1006.35 1006.97 1006.91 1007.65 1008.60 1009.56 1010.62 1011.55 1010.14 1008.41 1008.76 1008.68 1009.55 1010.63 1010.61 1011.02 1010.95 1012.05 1011.30 1010.92 1012.17 1012.31 1011.88 1012.42 1012.79 1013.38 1014.46 1014.99 1015.43 1016.09 1016.66 1017.32 1017.57 1016.35 1015.28 1010.81 1009.93 1008.89 1008.09 1007.93 1008.29 1008.61 1009.59
1004.40 1005.35 1006.38 1007.12 1007.06 1007.64 1008.24 1009.52 1011.04 1011.56 1008.69 1008.47 1008.34 1008.22 1009.13 1010.17 1010.30 1010.92 1010.67 1011.58 1011.41 1011.27 1011.95 1012.44 1012.44 1012.45 1012.85 1013.71 1014.43 1015.90 1016.65 1017.67 1018.67 1018.52 1016.85 1015.24 1014.45 1010.07 1009.06 1007.94 1007.71 1007.63 1007.55 1007.68 1008.27
1004.32 1005.28 1006.34 1006.86 1007.31 1007.99 1008.84 1009.86 1011.21 1009.63 1009.63 1009.03 1007.80 1007.68 1008.33 1008.29 1009.71 1009.85 1009.63 1009.80 1009.86 1009.75 1010.99 1012.26 1012.74 1012.91 1013.04 1013.62 1015.11 1015.50 1016.36 1017.81 1018.70 1017.95 1014.70 1013.88 1013.03 1010.42 1008.66 1008.03 1007.45 1007.17 1007.28 1007.43 1007.63
1004.46 1005.58 1006.35 1007.03 1007.38 1008.20 1008.97 1010.19 1009.84 1008.54 1008.94 1008.79 1007.94 1007.57 1007.05 1007.95 1008.56 1009.48 1009.39 1008.87 1009.52 1009.26 1009.68 1011.33 1013.38 1012.99 1012.92 1013.03 1014.21 1014.94 1015.02 1015.01 1015.71 1015.49 1013.73 1013.61 1010.98 1008.97 1008.36 1007.62 1007.40 1007.30 1007.29 1007.52 1007.34
1004.80 1006.00 1006.88 1007.48 1007.63 1008.15 1008.74 1008.87 1008.14 1008.07 1008.44 1008.77 1008.18 1007.00 1006.91 1007.61 1007.96 1008.30 1008.04 1007.76 1007.38 1006.96 1007.87 1009.63 1012.30 1013.84 1013.31 1013.54 1014.14 1015.38 1014.88 1014.64 1014.92 1015.51 1014.01 1011.59 1009.72 1008.96 1007.79 1007.69 1007.29 1007.08 1007.29 1007.31 1007.59
1004.77 1006.19 1006.82 1007.30 1007.74 1008.36 1008.89 1008.17 1008.09 1008.22 1008.92 1008.80 1008.00 1006.23 1006.04 1006.62 1006.98 1006.67 1006.83 1006.30 1005.94 1005.89 1006.33 1008.05 1011.64 1013.82 1014.43 1014.25 1015.08 1014.20 1014.84 1015.43 1014.66 1013.97 1012.41 1009.64 1008.72 1007.61 1007.43 1007.21 1006.87 1006.88 1007.22 1007.44 1007.85
1004.74 1005.92 1006.83 1007.37 1008.19 1008.57 1007.80 1007.32 1007.38 1007.77 1008.29 1009.28 1007.53 1005.78 1004.87 1005.20 1005.21 1005.56 1005.23 1005.69 1004.71 1005.18 1005.91 1007.24 1009.64 1014.26 1014.78 1014.70 1014.27 1014.38 1014.28 1013.85 1013.39 1012.69 1011.53 1009.62 1007.64 1006.51 1006.92 1007.50 1007.30 1007.40 1007.63 1007.76 1008.12
1004.27 1005.71 1006.42 1007.16 1008.21 1007.88 1007.02 1006.49 1006.79 1006.94 1007.84 1008.97 1008.24 1006.30 1004.55 1003.31 1003.65 1004.41 1003.71 1003.35 1003.78 1004.58 1005.40 1007.01 1009.16 1012.83 1014.43 1014.81 1014.32 1013.58 1013.49 1013.33 1012.69 1012.47 1011.78 1010.46 1007.93 1007.01 1007.11 1007.31 1007.43 1007.70 1008.04 1008.16 1008.43
1004.39 1005.92 1006.76 1006.80 1006.60 1006.72 1006.20 1006.16 1006.43 1006.72 1007.23 1007.80 1007.65 1005.85 1003.64 1003.20 1003.35 1003.80 1003.28 1003.18 1003.93 1004.57 1004.87 1007.05 1009.29 1012.04 1014.52 1014.83 1014.53 1013.32 1012.80 1012.57 1012.28 1012.46 1011.15 1010.50 1007.05 1006.38 1006.54 1007.25 1007.30 1007.65 1008.02 1008.02 1008.19
1003.63 1005.19 1006.68 1006.91 1005.88 1005.65 1005.78 1005.43 1005.85 1006.15 1006.60 1007.10 1007.08 1005.98 1003.70 1002.74 1002.44 1002.97 1003.36 1003.72 1004.15 1005.06 1005.33 1006.62 1008.38 1008.86 1009.34 1009.48 1011.60 1012.21 1012.23 1012.52 1012.26 1012.07 1010.02 1008.93 1006.98 1006.83 1006.63 1006.80 1007.15 1007.36 1007.48 1007.86 1008.13
1002.56 1003.90 1004.64 1005.22 1005.27 1004.93 1004.98 1004.72 1005.11 1005.50 1006.01 1006.39 1006.38 1005.44 1003.14 1002.96 1002.25 1002.48 1003.37 1004.55 1005.31 1005.74 1006.25 1006.50 1007.59 1008.50 1008.61 1009.07 1010.13 1010.68 1011.12 1011.57 1011.62 1009.38 1009.79 1007.09 1006.34 1006.60 1006.58 1006.54 1006.57 1006.78 1007.23 1007.84 1007.93
1002.83 1003.66 1004.83 1004.45 1004.77 1004.93 1004.36 1004.17 1004.52 1005.17 1005.61 1005.90 1005.73 1004.10 1002.10 1000.52 999.51 999.91 1000.85 1002.84 1004.16 1006.53 1006.51 1006.47 1007.78 1008.60 1009.54 1009.44 1009.75 1010.23 1010.67 1010.98 1010.30 1008.75 1009.58 1007.30 1006.33 1006.94 1006.71 1006.83 1007.38 1007.50 1007.68 1007.55 1007.59
1003.40 1003.69 1003.33 1003.89 1004.03 1004.36 1003.22 1003.40 1003.70 1004.60 1004.69 1004.29 1004.36 1004.09 1001.74 1000.80 1000.24 1001.47 1002.76 1003.00 1003.26 1003.47 1005.30 1006.75 1007.56 1008.79 1010.29 1010.28 1010.46 1010.31 1008.62 1008.86 1008.47 1008.87 1007.76 1007.90 1004.67 1007.02 1006.92 1007.23 1007.32 1007.20 1007.31 1007.40 1007.62
Thickness
5549 5555 5557 5563 5570 5574 5578 5581 5586 5590 5593 5594 5597 5599 5603 5610 5617 5622 5629 5641 5649 5652 5660 5661 5663 5668 5667 5674 5684 5690 5680 5685 5693 5698 5704 5710 5707 5712 5715 5712 5714 5715 5717 5719 5708
5540 5545 5550 5554 5560 5565 5569 5573 5577 5581 5585 5587 5589 5592 5593 5599 5606 5619 5632 5637 5635 5641 5654 5655 5652 5657 5661 5667 5678 5677 5679 5689 5701 5705 5705 5706 5708 5707 5705 5706 5706 5707 5708 5713 5702
5529 5536 5541 5547 5552 5557 5560 5565 5567 5573 5576 5578 5580 5583 5584 5589 5589 5619 5631 5632 5630 5636 5647 5654 5650 5649 5652 5661 5671 5679 5680 5692 5690 5694 5701 5702 5702 5710 5703 5701 5713 5707 5705 5703 5698
5519 5524 5530 5536 5542 5546 5551 5554 5558 5562 5567 5570 5571 5573 5575 5576 5582 5619 5630 5628 5627 5628 5638 5645 5647 5633 5636 5652 5673 5667 5682 5685 5679 5684 5692 5694 5704 5699 5702 5711 5712 5722 5714 5704 5696
5510 5515 5519 5525 5533 5539 5543 5545 5548 5552 5557 5560 5561 5562 5562 5567 5592 5611 5624 5621 5621 5623 5632 5639 5641 5637 5635 5654 5669 5670 5674 5672 5674 5681 5682 5687 5691 5694 5702 5716 5713 5717 5709 5703 5696
5501 5505 5510 5516 5524 5530 5534 5536 5538 5540 5545 5548 5549 5552 5557 5565 5594 5597 5611 5612 5616 5620 5627 5636 5641 5643 5640 5649 5658 5672 5670 5667 5668 5676 5675 5678 5686 5687 5701 5715 5705 5705 5705 5703 5698
5494 5498 5501 5507 5515 5520 5524 5527 5527 5528 5534 5537 5539 5542 5549 5580 5584 5587 5599 5608 5607 5612 5615 5626 5635 5633 5645 5642 5657 5661 5659 5665 5665 5675 5672 5669 5672 5677 5699 5699 5701 5699 5704 5703 5698
5487 5490 5495 5499 5507 5512 5514 5514 5514 5514 5516 5522 5527 5528 5547 5564 5570 5581 5588 5596 5598 5601 5606 5613 5622 5619 5625 5639 5645 5644 5650 5648 5664 5667 5673 5664 5659 5687 5696 5695 5695 5701 5703 5702 5698
5478 5482 5486 5492 5497 5501 5502 5502 5502 5501 5504 5507 5510 5520 5535 5550 5559 5573 5579 5586 5585 5588 5594 5603 5606 5607 5612 5619 5627 5639 5637 5643 5655 5665 5665 5663 5666 5683 5688 5688 5689 5700 5703 5704 5702
5469 5473 5478 5484 5489 5492 5491 5488 5488 5488 5491 5494 5502 5506 5519 5554 5558 5567 5567 5572 5576 5577 5576 5580 5592 5601 5600 5615 5621 5633 5630 5637 5644 5658 5652 5658 5664 5678 5685 5685 5684 5693 5701 5703 5704
5460 5464 5469 5475 5478 5478 5475 5473 5472 5479 5485 5507 5520 5518 5529 5552 5547 5554 5561 5562 5564 5568 5565 5572 5578 5602 5614 5615 5629 5633 5632 5634 5651 5652 5650 5653 5659 5666 5680 5686 5685 5688 5693 5699 5704
5452 5455 5459 5464 5466 5467 5471 5480 5488 5495 5489 5497 5507 5517 5525 5532 5537 5547 5554 5550 5553 5562 5571 5561 5584 5611 5617 5617 5617 5616 5623 5633 5644 5637 5639 5650 5657 5670 5676 5684 5690 5691 5695 5700 5701
5445 5447 5450 5453 5454 5455 5467 5477 5482 5484 5487 5503 5509 5517 5519 5523 5538 5543 5551 5554 5559 5565 5574 5587 5601 5599 5605 5609 5609 5616 5617 5637 5636 5629 5626 5632 5647 5664 5679 5683 5690 5696 5699 5700 5700
5438 5440 5441 5442 5441 5455 5457 5463 5469 5469 5469 5499 5496 5511 5502 5523 5523 5544 5555 5555 5555 5567 5576 5577 5589 5597 5600 5603 5612 5606 5620 5631 5616 5621 5610 5627 5623 5666 5683 5686 5693 5698 5700 5705 5701
5431 5432 5434 5440 5451 5452 5457 5455 5455 5452 5461 5502 5502 5516 5522 5517 5528 5532 5550 5543 5554 5576 5570 5575 5589 5591 5591 5601 5604 5601 5613 5616 5608 5600 5592 5607 5595 5666 5684 5684 5702 5709 5708 5713 5708
5423 5425 5424 5427 5440 5444 5447 5447 5441 5437 5473 5487 5500 5512 5513 5515 5524 5530 5538 5539 5559 5565 5569 5565 5578 5589 5594 5598 5600 5589 5588 5585 5570 5575 5587 5620 5611 5661 5678 5695 5700 5706 5709 5711 5710
5416 5418 5419 5425 5429 5431 5433 5430 5416 5439 5453 5476 5499 5513 5519 5526 5521 5530 5539 5544 5546 5548 5542 5551 5559 5573 5586 5584 5576 5584 5583 5568 5566 5574 5601 5624 5618 5647 5684 5697 5702 5705 5708 5710 5712
5409 5409 5412 5414 5419 5419 5420 5409 5414 5455 5464 5462 5490 5517 5524 5519 5523 5525 5531 5541 5544 5560 5564 5548 5535 5558 5577 5584 5576 5582 5593 5596 5581 5596 5621 5602 5621 5651 5683 5697 5698 5702 5704 5704 5711
5400 5399 5400 5404 5409 5412 5413 5408 5434 5458 5473 5465 5481 5508 5516 5513 5520 5525 5532 5545 5558 5576 5565 5561 5545 5546 5568 5578 5582 5558 5576 5602 5586 5560 5595 5626 5647 5655 5679 5683 5691 5694 5696 5701 5701
5394 5390 5394 5399 5402 5403 5397 5417 5424 5447 5443 5457 5483 5509 5514 5511 5519 5530 5532 5552 5567 5583 5590 5579 5545 5530 5541 5558 5558 5577 5578 5563 5575 5578 5592 5637 5639 5647 5666 5681 5693 5692 5692 5694 5695
5392 5389 5391 5391 5391 5388 5400 5421 5439 5452 5448 5448 5492 5496 5527 5517 5531 5534 5543 5553 5576 5578 5582 5580 5563 5517 5532 5541 5556 5561 5564 5579 5590 5597 5602 5615 5643 5671 5667 5670 5675 5680 5683 5685 5685
5392 5384 5386 5386 5380 5388 5408 5433 5443 5452 5448 5441 5450 5483 5520 5545 5543 5538 5550 5572 5582 5578 5570 5570 5558 5531 5533 5534 5556 5569 5569 5578 5579 5581 5591 5597 5626 5656 5660 5664 5667 5669 5671 5672 5673
5381 5376 5377 5383 5393 5394 5423 5430 5438 5444 5445 5452 5458 5493 5524 5534 5536 5543 5555 5568 5567 5564 5565 5558 5542 5517 5509 5520 5527 5552 5571 5580 5586 5572 5586 5586 5633 5662 5658 5648 5656 5661 5661 5669 5668
5389 5379 5372 5376 5402 5413 5412 5429 5434 5446 5447 5444 5449 5462 5516 5529 5543 5541 5541 5553 5561 5561 5561 5561 5553 5562 5565 5580 5558 5551 5562 5565 5571 5564 5598 5602 5639 5639 5644 5643 5644 5650 5658 5658 5659
5397 5390 5387 5391 5395 5415 5424 5432 5431 5432 5443 5443 5452 5464 5512 5500 5516 5529 5531 5533 5537 5542 5547 5558 5543 5558 5573 5581 5567 5564 5562 5560 5560 5599 5582 5628 5628 5636 5635 5641 5646 5649 5647 5643 5648
5386 5386 5378 5394 5402 5405 5421 5425 5430 5433 5435 5445 5454 5479 5518 5533 5554 5560 5562 5550 5542 5525 5539 5553 5537 5546 5538 5560 5562 5557 5558 5558 5571 5594 5581 5615 5620 5627 5631 5631 5626 5623 5624 5633 5641
5378 5382 5400 5397 5401 5403 5424 5438 5439 5439 5447 5471 5473 5474 5518 5533 5548 5547 5543 5549 5557 5558 5548 5542 5538 5535 5528 5540 5538 5534 5568 5572 5582 5582 5598 5588 5639 5614 5613 5614 5614 5620 5626 5630 5630